[[{"header":{"parameterUnit":"m.s-1","parameterCategory":2,"la1":30.2991,"la2":30.254,"lo1":-89.0895,"lo2":-89.0444,"dy":0.0017,"dx":0.0017,"nx":28,"ny":28,"refTime":"2024-11-30T03:00:00:Z","depth":"0","parameterNumber":2,"parameterNumberName":"U-component_of_CURRENTS"},"data":[0,0,0,0,0,0,0,0,0,0,0,0,0,0,0,0,0,0,0,0,0,0,0,0,0,0,0,0,0,0,0,0,0,0,0,0,0,0,0,0,0,0,0,0,0,0,0,0,0,0,0,0,0,0,0,0,0,0,0.4147,0.4147,0,0.4098,0.4097,0.4096,0.4038,0.4037,0.4037,0.4037,0.3949,0.3947,0.3945,0,0,0,0,0,0,0,0,0,0,0,0,0,0.4075,0.4077,0.4147,0.4147,0.4147,0.4098,0.4097,0.4095,0.4038,0.4037,0.4037,0.4037,0.395,0.3948,0.3945,0,0,0,0,0,0,0,0,0,0,0,0,0,0.4068,0.4078,0.4147,0.4117,0.4114,0.4098,0.4097,0.4095,0.4038,0.4037,0.4037,0.4036,0.3951,0.3948,0.3945,0.3934,0,0,0.3935,0.3934,0,0,0,0,0,0,0,0,0.4069,0.407,0.4121,0.4119,0.4116,0.4079,0.404,0.4041,0.4038,0.406,0.4037,0.4036,0.3994,0.3987,0.397,0.393,0.3926,0.3935,0.3933,0.3932,0.3931,0,0,0,0,0,0,0,0.407,0.4071,0.412,0.4122,0.4118,0.4067,0.4066,0.4039,0.4024,0.4058,0.4055,0.406,0.3991,0.3973,0.3967,0.3925,0.3935,0.3932,0.393,0.3929,0.3924,0.3926,0,0,0,0,0,0,0.4096,0.4073,0.4122,0.412,0.4099,0.407,0.4068,0.4086,0.4025,0.4017,0.4061,0.4058,0.3979,0.3971,0.3964,0.3983,0.3932,0.3929,0.3927,0.3922,0.3924,0.3926,0,0,0,0,0,0,0.4095,0.4102,0.4124,0.4099,0.4099,0.4073,0.4092,0.4085,0.4071,0.4029,0.4019,0.4056,0.3978,0.3969,0.3952,0.3978,0.3927,0.3925,0.392,0.3923,0.3925,0.3998,0,0,0,0,0,0,0.4093,0.4102,0.4115,0.4102,0.4102,0.4118,0.4093,0.4085,0.4078,0.4074,0.4021,0.4012,0.3977,0.3958,0.3949,0.3973,0.3922,0.3918,0.3921,0.3925,0.3993,0.4003,0.4011,0,0,0,0,0,0.4091,0.4104,0.4116,0.4122,0.4125,0.412,0.4114,0.4088,0.4079,0.4072,0.4047,0.4014,0.3973,0.3956,0.3946,0.3969,0.3916,0.392,0.3924,0.3989,0.4001,0.401,0,0,0,0,0,0,0.4058,0.41,0.4113,0.4134,0.4135,0.4112,0.4104,0.4096,0.4069,0.4065,0.4023,0.4013,0.4016,0.3985,0.3967,0.3981,0.3944,0.3947,0.3998,0.4008,0.4016,0.4076,0.392,0,0,0,0,0,0.4069,0.4098,0.412,0.4131,0.4142,0.4129,0.4122,0.4111,0.4093,0.408,0.4049,0.4028,0.4024,0.4009,0.3993,0.3987,0.4034,0.4002,0.4011,0.4018,0.4063,0.4182,0.4207,0.3939,0.3939,0.3939,0,0,0.4048,0.4083,0.4091,0.4127,0.4126,0.4138,0.4121,0.4118,0.4125,0.4076,0.4066,0.4055,0.4033,0.4035,0.4034,0.4009,0.4112,0.4023,0.4029,0.4071,0.4189,0.4215,0.4239,0.3942,0.3941,0.3941,0,0,0.4025,0.4069,0.4085,0.4105,0.413,0.4136,0.4144,0.4138,0.4135,0.4128,0.4116,0.4135,0.4085,0.4102,0.4099,0.415,0.4161,0.4131,0.4212,0.4325,0.435,0.4371,0.4437,0.4464,0.4127,0.4127,0.4128,0,0.3999,0.4041,0.408,0.4106,0.4129,0.4144,0.4161,0.4162,0.4147,0.4179,0.4133,0.417,0.4131,0.42,0.4209,0.4173,0.4228,0.4167,0.4341,0.4363,0.4385,0.4447,0.4476,0.4131,0.4131,0.4131,0.413,0,0.3992,0.403,0.4041,0.41,0.4126,0.414,0.4177,0.4198,0.4203,0.4223,0.4288,0.4264,0.4304,0.4284,0.4249,0.4384,0.4369,0.4345,0.4319,0.4417,0.4474,0.4503,0.4137,0.4136,0.4135,0.4134,0,0,0.3921,0.402,0.4023,0.4068,0.4134,0.4155,0.4204,0.4273,0.4342,0.4338,0.4437,0.4431,0.4465,0.447,0.4453,0.4531,0.4688,0.4502,0.4506,0.4576,0.493,0.4801,0.4819,0.4704,0.4711,0.4715,0.4899,0,0.3903,0.3961,0.4021,0.4075,0.4114,0.4186,0.424,0.4312,0.4373,0.4469,0.4515,0.4586,0.4522,0.4558,0.4637,0.4687,0.4775,0.464,0.4819,0.4824,0.4706,0.4853,0.4662,0.4802,0.4928,0.4933,0.4936,0,0.3879,0.3935,0.3985,0.4112,0.4139,0.4173,0.4323,0.4377,0.4533,0.4592,0.471,0.4757,0.4883,0.4807,0.499,0.4912,0.4946,0.497,0.4977,0.4865,0.4752,0.4731,0.485,0.472,0.4981,0.4977,0.4974,0,0.3819,0.3917,0.3967,0.4001,0.4131,0.4182,0.4257,0.441,0.4506,0.4698,0.4808,0.4954,0.5038,0.5139,0.5174,0.5114,0.537,0.5286,0.5209,0.5197,0.5077,0.5044,0.5106,0.5456,0.5455,0.5455,0.5454,0,0.3788,0.3829,0.3942,0.3967,0.4064,0.4159,0.4288,0.44,0.4586,0.4733,0.4875,0.5013,0.5135,0.5273,0.5286,0.5348,0.5471,0.5281,0.5268,0.5087,0.5055,0.4965,0.4922,0.5462,0.546,0.5459,0.5458,0,0.3713,0.3778,0.3852,0.3985,0.4033,0.4101,0.4293,0.4397,0.4585,0.4792,0.4867,0.5106,0.5272,0.5376,0.5533,0.5475,0.5396,0.5531,0.5282,0.5235,0.4968,0.4935,0.4843,0.4698,0.5481,0.5479,0.5478,0,0.368,0.3704,0.3848,0.3902,0.3958,0.4077,0.4166,0.4364,0.4484,0.4827,0.4917,0.5167,0.5312,0.5502,0.5463,0.5511,0.536,0.5335,0.5173,0.4981,0.4938,0.4729,0.4599,0.5039,0.5034,0.503,0.5027,0,0.3635,0.3681,0.3752,0.3859,0.3946,0.405,0.4185,0.4283,0.4529,0.4708,0.4929,0.5086,0.5282,0.5237,0.5305,0.5299,0.5069,0.5247,0.5154,0.4705,0.4387,0.4229,0.4859,0.4991,0.4995,0.4997,0.4999,0.5001,0.3607,0.3646,0.3739,0.383,0.392,0.3992,0.403,0.4183,0.4344,0.4552,0.4765,0.4889,0.5001,0.5052,0.5021,0.4823,0.4804,0.4661,0.4674,0.4504,0.4252,0.4773,0.4809,0.4811,0.4813,0.4815,0.4817,0,0.3575,0.3626,0.371,0.3797,0.3829,0.3905,0.4018,0.4019,0.4116,0.4325,0.4456,0.4503,0.452,0.4572,0.4466,0.4281,0.4085,0.4181,0.3885,0.3813,0.4393,0.4258,0.4047,0.4047,0.4047,0.4047,0.4048,0.4048,0.3567,0.3614,0.3648,0.3676,0.3716,0.3693,0.371,0.3733,0.3822,0.3853,0.3851,0.3926,0.4137,0.4221,0.405,0.3944,0.3637,0.3471,0.3471,0.3931,0.3976,0.4018,0.388,0.3593,0.3593,0.2695,0.2689,0.2684]},{"header":{"parameterUnit":"m.s-1","parameterCategory":2,"la1":30.2991,"la2":30.254,"lo1":-89.0895,"lo2":-89.0444,"dy":0.0017,"dx":0.0017,"nx":28,"ny":28,"refTime":"2024-11-30T03:00:00:Z","depth":"0","parameterNumber":3,"parameterNumberName":"V-component_of_CURRENTS"},"data":[0,0,0,0,0,0,0,0,0,0,0,0,0,0,0,0,0,0,0,0,0,0,0,0,0,0,0,0,0,0,0,0,0,0,0,0,0,0,0,0,0,0,0,0,0,0,0,0,0,0,0,0,0,0,0,0,0,0,-0.0035,-0.0035,0,-0.0064,-0.0064,-0.0065,-0.0092,-0.0093,-0.0093,-0.0093,-0.0148,-0.0149,-0.015,0,0,0,0,0,0,0,0,0,0,0,0,0,-0.0016,-0.0016,-0.0035,-0.0036,-0.0036,-0.0064,-0.0064,-0.0065,-0.0092,-0.0093,-0.0093,-0.0093,-0.0147,-0.0149,-0.015,0,0,0,0,0,0,0,0,0,0,0,0,0,-0.0034,-0.0017,-0.0035,-0.0052,-0.0054,-0.0064,-0.0064,-0.0065,-0.0092,-0.0093,-0.0093,-0.0093,-0.0147,-0.0149,-0.0151,-0.0155,0,0,-0.0156,-0.0157,0,0,0,0,0,0,0,0,-0.0033,-0.0035,-0.0049,-0.0051,-0.0053,-0.0074,-0.0078,-0.0096,-0.0092,-0.0079,-0.0093,-0.0093,-0.0124,-0.0128,-0.0134,-0.0157,-0.016,-0.0156,-0.0158,-0.0158,-0.0159,0,0,0,0,0,0,0,-0.0031,-0.0034,-0.0048,-0.0049,-0.0052,-0.0062,-0.0065,-0.0081,-0.0101,-0.008,-0.0082,-0.0083,-0.0126,-0.0132,-0.0136,-0.0161,-0.0156,-0.0158,-0.0159,-0.016,-0.0194,-0.0194,0,0,0,0,0,0,-0.0024,-0.0032,-0.0047,-0.0049,-0.0042,-0.0062,-0.0065,-0.0068,-0.01,-0.0105,-0.0083,-0.0084,-0.0129,-0.0133,-0.0138,-0.0131,-0.0158,-0.016,-0.0161,-0.0194,-0.0194,-0.0194,0,0,0,0,0,0,-0.0024,-0.0025,-0.0046,-0.004,-0.0043,-0.0062,-0.0064,-0.0068,-0.0073,-0.0101,-0.0107,-0.0083,-0.0129,-0.0135,-0.0145,-0.0134,-0.0161,-0.0163,-0.0195,-0.0194,-0.0194,-0.0127,0,0,0,0,0,0,-0.0023,-0.0025,-0.0023,-0.004,-0.0043,-0.0038,-0.0064,-0.0068,-0.0073,-0.0075,-0.0104,-0.011,-0.013,-0.0142,-0.0147,-0.0137,-0.0164,-0.0195,-0.0194,-0.0194,-0.0129,-0.0124,-0.012,0,0,0,0,0,-0.0023,-0.0008,-0.0023,-0.0024,-0.004,-0.0037,-0.004,-0.0055,-0.0072,-0.0064,-0.0088,-0.0109,-0.0143,-0.0143,-0.0149,-0.0139,-0.0195,-0.0195,-0.0194,-0.0131,-0.0125,-0.012,0,0,0,0,0,0,0.001,-0.001,-0.0026,-0.0018,-0.0024,-0.0041,-0.0034,-0.0051,-0.0064,-0.0069,-0.0102,-0.0109,-0.0115,-0.0138,-0.0137,-0.015,-0.0174,-0.0175,-0.0125,-0.0119,-0.0115,-0.009,-0.0166,0,0,0,0,0,0.0015,0.0016,-0.0003,0.0007,0.0003,-0.0018,-0.002,-0.0032,-0.0046,-0.0052,-0.0074,-0.01,-0.0118,-0.0126,-0.0146,-0.0149,-0.016,-0.0149,-0.0144,-0.014,-0.0125,-0.0141,-0.0135,-0.0192,-0.0192,-0.0192,0,0,0.0032,0.0021,0.0022,0.0013,0.0003,0.0017,-0.002,-0.0016,-0.0006,-0.0056,-0.0051,-0.0083,-0.0116,-0.012,-0.0125,-0.0136,-0.0128,-0.014,-0.0135,-0.0122,-0.014,-0.0134,-0.0129,-0.0192,-0.0192,-0.0192,0,0,0.0076,0.0053,0.0072,0.0068,0.0058,0.0046,0.005,0.0032,0.0021,0.002,-0.0017,-0.0042,-0.0064,-0.0087,-0.0102,-0.0085,-0.0104,-0.0093,-0.0045,-0.0061,-0.0056,-0.0052,-0.0045,-0.0041,-0.0089,-0.0089,-0.0089,0,0.0098,0.0115,0.0081,0.01,0.0108,0.0064,0.0095,0.0079,0.0061,0.0059,0.0032,-0.0008,-0.0048,-0.0051,-0.005,-0.0074,-0.0073,-0.0062,-0.0053,-0.0049,-0.0046,-0.004,-0.0036,-0.0085,-0.0086,-0.0086,-0.0086,0,0.0156,0.0169,0.0183,0.0189,0.0192,0.021,0.0185,0.0178,0.0153,0.0139,0.0125,0.0067,0.0045,0.0021,-0.001,-0.0007,-0.001,-0.0045,-0.0061,-0.0036,-0.0032,-0.0029,-0.0081,-0.0082,-0.0083,-0.0084,0,0,0.0213,0.0222,0.0229,0.025,0.024,0.0255,0.0259,0.0262,0.0283,0.0234,0.0262,0.019,0.0153,0.0132,0.0081,0.006,0.0068,0.0025,0.0023,0.0043,0.0062,0.0043,0.0044,0.0041,0.0042,0.0042,0.0061,0,0.0273,0.0331,0.0316,0.0376,0.0405,0.0366,0.0383,0.0374,0.0359,0.0372,0.0294,0.0299,0.0198,0.0195,0.0151,0.0104,0.0078,0.0068,0.0025,0.0024,0.0012,0.0046,0.0067,0.0084,0.0064,0.0064,0.0065,0,0.034,0.037,0.0435,0.0473,0.0482,0.0505,0.0529,0.0544,0.0532,0.0522,0.049,0.0441,0.0399,0.031,0.0224,0.023,0.0149,0.0097,0.0096,0.0059,0.0009,0.005,0.009,-0.0113,0.0069,0.0068,0.0068,0,0.0406,0.0459,0.0515,0.0526,0.0554,0.0571,0.0588,0.0589,0.0633,0.0629,0.0674,0.0585,0.058,0.046,0.0327,0.0286,0.0252,0.0177,0.008,0.0079,0.0078,0.0075,-0.0075,0.0108,0.0108,0.0108,0.0108,0,0.0479,0.0526,0.055,0.058,0.066,0.0648,0.0736,0.0731,0.0772,0.0872,0.0764,0.0823,0.0619,0.0565,0.0405,0.0276,0.0305,0.0108,0.0084,0.0102,0.0101,-0.0093,-0.0216,0.0109,0.0109,0.0109,0.0109,0,0.0544,0.0555,0.0627,0.0668,0.0692,0.075,0.0846,0.0917,0.0936,0.1068,0.1081,0.1025,0.0958,0.0762,0.0595,0.0405,0.0152,0.0201,0.0247,0.0226,-0.009,-0.0209,-0.0382,-0.047,0.0094,0.0094,0.0094,0,0.0582,0.0623,0.07,0.0762,0.0785,0.0876,0.0951,0.0991,0.109,0.1213,0.1294,0.1257,0.1288,0.1029,0.068,0.0414,0.0185,0.0215,0.0108,-0.0088,-0.0239,-0.0343,-0.0412,0.0143,0.0143,0.0143,0.0143,0,0.0659,0.0679,0.0741,0.0864,0.0952,0.1071,0.1185,0.1287,0.138,0.1519,0.1677,0.172,0.1464,0.1188,0.0773,0.0561,0.0063,0.0206,-0.0008,-0.022,-0.0328,-0.0428,0.012,0.0144,0.0144,0.0144,0.0144,0.0144,0.0718,0.0778,0.086,0.098,0.1094,0.1248,0.1368,0.153,0.173,0.1963,0.1973,0.2114,0.165,0.109,0.0748,0.0095,0.0061,-0.0119,-0.0243,-0.0326,-0.0438,0.0119,0.0111,0.0111,0.0111,0.011,0.011,0,0.0794,0.0863,0.0979,0.112,0.126,0.1302,0.1517,0.1667,0.1939,0.219,0.2367,0.2256,0.1705,0.1093,0.0199,-0.0269,-0.0448,-0.0525,-0.0675,-0.0723,-0.0224,-0.0251,-0.0322,-0.0322,-0.0322,-0.0322,-0.0322,-0.0321,0.0838,0.0951,0.1005,0.1231,0.1342,0.1538,0.1668,0.1918,0.2138,0.2471,0.2601,0.2649,0.2168,0.0582,-0.0459,-0.0678,-0.1035,-0.1119,-0.1287,-0.0966,-0.0938,-0.0912,-0.0967,-0.1187,-0.1188,-0.1721,-0.1727,-0.1731]}],[{"header":{"parameterUnit":"m.s-1","parameterCategory":2,"la1":30.2991,"la2":30.254,"lo1":-89.0895,"lo2":-89.0444,"dy":0.0017,"dx":0.0017,"nx":28,"ny":28,"refTime":"2024-11-30T03:00:00:Z","depth":"2","parameterNumber":2,"parameterNumberName":"U-component_of_CURRENTS"},"data":[0,0,0,0,0,0,0,0,0,0,0,0,0,0,0,0,0,0,0,0,0,0,0,0,0,0,0,0,0,0,0,0,0,0,0,0,0,0,0,0,0,0,0,0,0,0,0,0,0,0,0,0,0,0,0,0,0,0,0.3198,0.3198,0,0.3232,0.3232,0.3233,0.3236,0.3236,0.3236,0.3236,0.3224,0.3224,0.3224,0,0,0,0,0,0,0,0,0,0,0,0,0,0.3146,0.3147,0.3198,0.3198,0.3199,0.3232,0.3232,0.3233,0.3236,0.3236,0.3236,0.3236,0.3224,0.3224,0.3224,0,0,0,0,0,0,0,0,0,0,0,0,0,0.317,0.3147,0.3198,0.3207,0.3209,0.3232,0.3232,0.3233,0.3236,0.3236,0.3236,0.3236,0.3225,0.3224,0.3224,0.3223,0,0,0.3223,0.3223,0,0,0,0,0,0,0,0,0.3169,0.3172,0.3205,0.3207,0.3208,0.3233,0.321,0.3228,0.3236,0.3222,0.3236,0.3236,0.3225,0.3225,0.3227,0.3223,0.3222,0.3223,0.3222,0.3222,0.3222,0,0,0,0,0,0,0,0.3167,0.317,0.3208,0.3206,0.3208,0.3214,0.3217,0.3214,0.322,0.3223,0.3224,0.3234,0.3225,0.3228,0.3227,0.3222,0.3223,0.3222,0.3222,0.3222,0.3279,0.3281,0,0,0,0,0,0,0.3169,0.3169,0.3207,0.3209,0.3192,0.3215,0.3218,0.3222,0.3221,0.3222,0.3234,0.3234,0.3228,0.3227,0.3227,0.3276,0.3222,0.3222,0.3222,0.3278,0.328,0.3282,0,0,0,0,0,0,0.3168,0.3172,0.3206,0.3193,0.3198,0.3217,0.3221,0.3223,0.3241,0.323,0.323,0.3251,0.3228,0.3227,0.3244,0.3273,0.3222,0.3221,0.3276,0.3278,0.3281,0.3341,0,0,0,0,0,0,0.3166,0.3171,0.3179,0.3193,0.3199,0.3232,0.3221,0.3224,0.3247,0.3248,0.3245,0.3243,0.3228,0.3245,0.3244,0.3272,0.3221,0.3273,0.3277,0.328,0.3337,0.3346,0.3353,0,0,0,0,0,0.3164,0.3173,0.3179,0.3184,0.3207,0.3233,0.3236,0.3247,0.3249,0.3261,0.3264,0.3244,0.3265,0.3246,0.3244,0.3273,0.3272,0.3276,0.328,0.3334,0.3344,0.3353,0,0,0,0,0,0,0.3155,0.3175,0.3182,0.3197,0.322,0.3235,0.3251,0.3259,0.3272,0.3275,0.326,0.3259,0.329,0.3274,0.3254,0.3301,0.3268,0.3271,0.3309,0.3319,0.3327,0.3336,0.3221,0,0,0,0,0,0.3158,0.3169,0.3193,0.3207,0.3222,0.324,0.3254,0.3265,0.3277,0.3284,0.3283,0.3288,0.3303,0.3305,0.3312,0.333,0.3349,0.3351,0.3359,0.3365,0.3374,0.3445,0.346,0.3295,0.3295,0.3294,0,0,0.3157,0.3172,0.3178,0.3207,0.3225,0.3249,0.3248,0.3277,0.3299,0.328,0.3307,0.3317,0.3317,0.3344,0.3356,0.3334,0.3422,0.337,0.3376,0.3381,0.3451,0.3467,0.3481,0.3297,0.3297,0.3296,0,0,0.3161,0.3179,0.3191,0.3215,0.3251,0.3267,0.3281,0.3308,0.3323,0.3352,0.3353,0.3385,0.339,0.3405,0.341,0.3467,0.3467,0.347,0.3509,0.3579,0.3593,0.3606,0.3649,0.3666,0.3467,0.3467,0.3467,0,0.3161,0.3178,0.3201,0.3224,0.3245,0.3278,0.33,0.3325,0.3354,0.3379,0.3368,0.3428,0.3422,0.3474,0.3492,0.3485,0.3518,0.3469,0.359,0.3603,0.3615,0.3656,0.3674,0.3471,0.347,0.347,0.347,0,0.3173,0.3194,0.3209,0.3245,0.3273,0.3302,0.334,0.3375,0.3399,0.3427,0.3491,0.35,0.3539,0.3544,0.3529,0.3615,0.3609,0.3597,0.3565,0.3635,0.3674,0.3691,0.3475,0.3474,0.3473,0.3472,0,0,0.3143,0.3203,0.3207,0.3228,0.3288,0.3308,0.3362,0.3419,0.347,0.3506,0.3571,0.3603,0.3631,0.3641,0.3644,0.3691,0.3795,0.368,0.3682,0.3722,0.3946,0.3873,0.3884,0.3813,0.3816,0.3819,0.3938,0,0.3144,0.3179,0.3216,0.3257,0.3278,0.3336,0.3385,0.3446,0.3504,0.3578,0.3622,0.3684,0.3663,0.3695,0.3746,0.3791,0.3843,0.3764,0.3872,0.3875,0.3802,0.3903,0.3585,0.3658,0.3954,0.3957,0.3959,0,0.3134,0.3161,0.3195,0.3263,0.3281,0.3318,0.3413,0.3467,0.3585,0.364,0.3727,0.3766,0.3855,0.382,0.3948,0.3904,0.3934,0.3956,0.3961,0.3884,0.3835,0.3637,0.3677,0.3986,0.3984,0.3982,0.398,0,0.308,0.3143,0.3167,0.3189,0.3275,0.3312,0.3371,0.3485,0.3552,0.3696,0.3769,0.3874,0.395,0.401,0.406,0.4022,0.4194,0.4144,0.4106,0.4101,0.3845,0.3811,0.424,0.424,0.424,0.424,0.4239,0,0.3054,0.3072,0.3146,0.3158,0.3209,0.3285,0.337,0.3457,0.3595,0.3685,0.3803,0.389,0.4008,0.4105,0.4119,0.418,0.4253,0.414,0.4142,0.3856,0.3823,0.411,0.4094,0.4244,0.4243,0.4242,0.4241,0,0.2988,0.3035,0.3068,0.3153,0.3183,0.3223,0.3359,0.3425,0.3578,0.3703,0.3755,0.3949,0.4081,0.4173,0.4293,0.4265,0.4312,0.4307,0.3956,0.3914,0.4151,0.4136,0.4277,0.4276,0.4275,0.4274,0.4273,0,0.2957,0.2966,0.3046,0.307,0.311,0.3188,0.3243,0.3398,0.3477,0.3713,0.3762,0.3959,0.4059,0.4232,0.4229,0.4272,0.433,0.3988,0.3849,0.4175,0.4163,0.4149,0.4136,0.3531,0.3524,0.3518,0.3514,0,0.2901,0.2931,0.2959,0.3012,0.3061,0.311,0.3203,0.3258,0.3441,0.3545,0.3693,0.3797,0.3997,0.3917,0.401,0.3978,0.3952,0.3877,0.434,0.3573,0.3481,0.3466,0.3475,0.3465,0.347,0.3473,0.3476,0.3478,0.2856,0.286,0.2904,0.2937,0.2988,0.3005,0.2999,0.3102,0.318,0.3293,0.3495,0.355,0.3652,0.363,0.3539,0.3478,0.3744,0.3561,0.3573,0.3593,0.3488,0.34,0.3347,0.3351,0.3355,0.3358,0.336,0,0.2783,0.2797,0.283,0.2841,0.2824,0.2905,0.2943,0.2894,0.29,0.3059,0.3153,0.2975,0.2971,0.3057,0.2895,0.2919,0.2846,0.2792,0.2652,0.2707,0.2755,0.26,0.2227,0.2223,0.2219,0.2215,0,0,0.2748,0.2725,0.2727,0.2659,0.2675,0.2605,0.2588,0.2536,0.2581,0.2557,0.2576,0.2848,0.2986,0.2556,0.2523,0.2335,0.2488,0.2248,0.3172,0.3064,0.3105,0.3233,0.3063,0,0,0,0,0]},{"header":{"parameterUnit":"m.s-1","parameterCategory":2,"la1":30.2991,"la2":30.254,"lo1":-89.0895,"lo2":-89.0444,"dy":0.0017,"dx":0.0017,"nx":28,"ny":28,"refTime":"2024-11-30T03:00:00:Z","depth":"2","parameterNumber":3,"parameterNumberName":"V-component_of_CURRENTS"},"data":[0,0,0,0,0,0,0,0,0,0,0,0,0,0,0,0,0,0,0,0,0,0,0,0,0,0,0,0,0,0,0,0,0,0,0,0,0,0,0,0,0,0,0,0,0,0,0,0,0,0,0,0,0,0,0,0,0,0,0.0155,0.0154,0,0.0102,0.0101,0.01,0.0064,0.0063,0.0063,0.0063,0.0008,0.0006,0.0005,0,0,0,0,0,0,0,0,0,0,0,0,0,0.0166,0.0166,0.0155,0.0154,0.0154,0.0102,0.0101,0.01,0.0064,0.0063,0.0063,0.0063,0.0008,0.0006,0.0005,0,0,0,0,0,0,0,0,0,0,0,0,0,0.014,0.0166,0.0155,0.013,0.0128,0.0102,0.0101,0.01,0.0064,0.0063,0.0063,0.0063,0.0008,0.0007,0.0005,-0.0004,0,0,-0.0002,-0.0003,0,0,0,0,0,0,0,0,0.0142,0.014,0.0134,0.0132,0.0129,0.009,0.0084,0.0065,0.0064,0.0086,0.0063,0.0063,0.0036,0.0032,0.002,-0.0006,-0.0009,-0.0002,-0.0003,-0.0004,-0.0005,0,0,0,0,0,0,0,0.0144,0.0142,0.0132,0.0134,0.013,0.0102,0.0098,0.008,0.0062,0.0084,0.0082,0.0078,0.0034,0.0022,0.0019,-0.001,-0.0002,-0.0004,-0.0005,-0.0006,-0.0046,-0.0045,0,0,0,0,0,0,0.0157,0.0144,0.0134,0.0131,0.0137,0.0102,0.0098,0.0102,0.0062,0.0056,0.0079,0.0077,0.0026,0.0021,0.0017,0.0021,-0.0004,-0.0006,-0.0007,-0.0046,-0.0046,-0.0045,0,0,0,0,0,0,0.0157,0.0157,0.0136,0.0136,0.0132,0.0103,0.0107,0.0101,0.0092,0.0058,0.0052,0.0076,0.0025,0.0019,0.0008,0.0018,-0.0007,-0.0009,-0.0046,-0.0046,-0.0045,0.002,0,0,0,0,0,0,0.0158,0.0157,0.0162,0.0138,0.0133,0.0132,0.0107,0.01,0.009,0.0088,0.0054,0.0048,0.0025,0.0011,0.0006,0.0015,-0.001,-0.0046,-0.0046,-0.0045,0.0018,0.0023,0.0027,0,0,0,0,0,0.0159,0.0174,0.0163,0.0162,0.0141,0.0132,0.0127,0.0104,0.0091,0.0093,0.0069,0.0049,0.0009,0.001,0.0003,0.0013,-0.0046,-0.0046,-0.0046,0.0016,0.0022,0.0027,0,0,0,0,0,0,0.0183,0.0171,0.0159,0.017,0.0155,0.0127,0.0127,0.011,0.0091,0.0088,0.0054,0.0047,0.0038,0.0016,0.0017,0.0,-0.0023,-0.0024,0.0026,0.0031,0.0035,0.0059,-0.0012,0,0,0,0,0,0.0191,0.0199,0.0179,0.0187,0.0182,0.0154,0.0146,0.0132,0.0113,0.0104,0.008,0.0053,0.0033,0.0026,0.0002,-0.0002,-0.0027,-0.0002,0.0002,0.0006,0.002,-0.0009,-0.0006,-0.0044,-0.0044,-0.0044,0,0,0.0202,0.0197,0.02,0.0193,0.0178,0.0185,0.0149,0.0145,0.0151,0.0102,0.0101,0.0068,0.0034,0.0027,0.0021,0.0012,0.0002,0.0007,0.0011,0.0023,-0.0008,-0.0004,-0.0001,-0.0044,-0.0044,-0.0044,0,0,0.0235,0.0224,0.0242,0.0236,0.0223,0.0209,0.0212,0.0187,0.0175,0.0167,0.0132,0.011,0.008,0.006,0.0046,0.0061,0.0024,0.0049,0.0097,0.0068,0.0071,0.0074,0.0043,0.0042,0.0055,0.0055,0.0055,0,0.0248,0.027,0.0245,0.0261,0.0267,0.0226,0.025,0.0231,0.0206,0.0206,0.0178,0.0133,0.0098,0.0096,0.0096,0.0074,0.005,0.0082,0.0075,0.0077,0.0079,0.0046,0.0045,0.0058,0.0058,0.0058,0.0057,0,0.0293,0.031,0.0321,0.0331,0.0332,0.0345,0.0323,0.0314,0.0291,0.0276,0.0261,0.0207,0.0185,0.0163,0.0133,0.013,0.0107,0.0082,0.0066,0.0087,0.0051,0.0048,0.0063,0.0062,0.0061,0.006,0,0,0.0331,0.0351,0.0356,0.0379,0.0373,0.0386,0.0389,0.0393,0.0414,0.0362,0.0381,0.0321,0.0289,0.027,0.0223,0.0193,0.017,0.0148,0.0145,0.0127,0.0106,0.0079,0.0072,0.0145,0.0145,0.0145,0.0075,0,0.0377,0.0431,0.0426,0.048,0.0509,0.048,0.0497,0.0491,0.0477,0.0481,0.0413,0.0409,0.0332,0.0324,0.0279,0.0205,0.0167,0.0191,0.0081,0.0078,0.0059,0.007,0.0101,0.0041,0.0072,0.0072,0.0071,0,0.0427,0.0461,0.0522,0.0569,0.058,0.0601,0.0633,0.0647,0.0632,0.0622,0.0593,0.0538,0.0485,0.0413,0.0293,0.0313,0.0217,0.0147,0.0142,0.0096,0.0046,0.0024,0.0034,0.0066,0.0067,0.0067,0.0067,0,0.0479,0.0534,0.059,0.0603,0.064,0.0661,0.0682,0.069,0.0733,0.0717,0.0739,0.0654,0.0629,0.0495,0.0333,0.0316,0.0197,0.0155,0.0038,0.0034,0.003,0.0026,0.0068,0.0068,0.0068,0.0068,0.0069,0,0.0536,0.0582,0.0619,0.0649,0.0731,0.073,0.0817,0.0819,0.0854,0.0926,0.0822,0.0848,0.0649,0.0548,0.0379,0.0207,0.0228,0.0054,0.0019,0.0052,0.0051,0.0049,0.0047,0.0066,0.0066,0.0067,0.0067,0,0.0585,0.0603,0.0677,0.073,0.0757,0.0818,0.0916,0.0984,0.0993,0.1079,0.1078,0.1005,0.0874,0.066,0.0454,0.0289,0.011,0.0039,0.0088,0.006,-0.0047,-0.0045,-0.0093,-0.0095,-0.0096,-0.0097,-0.0098,0,0.0614,0.0654,0.0744,0.0804,0.0833,0.0927,0.1002,0.1051,0.114,0.1184,0.1238,0.1132,0.1085,0.0763,0.0453,0.0156,0.0112,-0.0017,-0.005,-0.0032,-0.0062,-0.0057,-0.0053,-0.0036,-0.0036,-0.0036,-0.0037,0,0.0676,0.0702,0.0767,0.0891,0.098,0.11,0.121,0.1302,0.1369,0.1429,0.149,0.1448,0.1145,0.0851,0.0434,0.0235,0.0029,-0.0031,-0.0015,0.0001,0.0016,-0.0011,-0.0008,-0.0039,-0.0039,-0.0038,-0.0038,-0.0038,0.0724,0.0784,0.087,0.0992,0.1104,0.1253,0.1367,0.1488,0.1626,0.1723,0.168,0.1622,0.1276,0.0752,0.0386,0.0006,0.0026,-0.011,-0.0106,-0.0104,-0.0084,-0.0072,-0.0139,-0.0139,-0.014,-0.014,-0.014,0,0.079,0.0859,0.097,0.1114,0.1246,0.1298,0.1496,0.1606,0.1772,0.1842,0.1879,0.155,0.1213,0.081,0.0242,-0.0095,-0.0113,-0.0196,-0.0149,-0.0144,-0.014,-0.0121,-0.0187,-0.0189,-0.019,-0.0191,0,0,0.0826,0.0936,0.0992,0.1204,0.1315,0.1505,0.1626,0.1774,0.1871,0.1934,0.1902,0.1832,0.1336,0.0915,0.0454,0.0126,0.0073,0.0071,0.0148,0.0264,0.0272,-0.0049,-0.0008,0,0,0,0,0]}],[{"header":{"parameterUnit":"m.s-1","parameterCategory":2,"la1":30.2991,"la2":30.254,"lo1":-89.0895,"lo2":-89.0444,"dy":0.0017,"dx":0.0017,"nx":28,"ny":28,"refTime":"2024-11-30T03:00:00:Z","depth":"4","parameterNumber":2,"parameterNumberName":"U-component_of_CURRENTS"},"data":[0,0,0,0,0,0,0,0,0,0,0,0,0,0,0,0,0,0,0,0,0,0,0,0,0,0,0,0,0,0,0,0,0,0,0,0,0,0,0,0,0,0,0,0,0,0,0,0,0,0,0,0,0,0,0,0,0,0,0.2016,0.2017,0,0.2102,0.2102,0.2103,0.2176,0.2177,0.2178,0.2179,0.2262,0.2263,0.2265,0,0,0,0,0,0,0,0,0,0,0,0,0,0.1933,0.1934,0.2016,0.2017,0.2018,0.2102,0.2103,0.2104,0.2176,0.2177,0.2178,0.2179,0.2262,0.2263,0.2265,0,0,0,0,0,0,0,0,0,0,0,0,0,0.1987,0.1935,0.2016,0.2066,0.2071,0.2101,0.2103,0.2104,0.2175,0.2177,0.2178,0.218,0.2261,0.2263,0.2265,0.2249,0,0,0.2271,0.2272,0,0,0,0,0,0,0,0,0.1984,0.199,0.2057,0.2062,0.2068,0.2131,0.2104,0.2153,0.2175,0.2134,0.2179,0.218,0.2218,0.2224,0.2234,0.2253,0.2256,0.2271,0.2273,0.2273,0.2274,0,0,0,0,0,0,0,0.198,0.1987,0.2048,0.2058,0.2065,0.209,0.2099,0.2114,0.2166,0.2138,0.2144,0.2155,0.2221,0.2232,0.2237,0.2258,0.2271,0.2273,0.2274,0.2275,0.2401,0.2403,0,0,0,0,0,0,0.1971,0.1983,0.2045,0.2051,0.2031,0.2091,0.2101,0.2108,0.2166,0.2176,0.2154,0.2158,0.2228,0.2234,0.224,0.2341,0.2273,0.2275,0.2276,0.2399,0.2401,0.2403,0,0,0,0,0,0,0.1968,0.1975,0.2042,0.2021,0.2031,0.2091,0.2098,0.2109,0.2166,0.2179,0.2189,0.2206,0.2229,0.2237,0.2298,0.234,0.2276,0.2278,0.2396,0.2399,0.2402,0.2468,0,0,0,0,0,0,0.1966,0.1974,0.1998,0.202,0.2032,0.2089,0.2098,0.211,0.2169,0.2177,0.2225,0.2232,0.2231,0.2295,0.23,0.2342,0.228,0.2393,0.2398,0.2401,0.2463,0.2473,0.2481,0,0,0,0,0,0.1962,0.1983,0.1998,0.2007,0.2056,0.2091,0.21,0.2145,0.2171,0.2201,0.2241,0.2233,0.2324,0.2299,0.2304,0.2347,0.2391,0.2396,0.2401,0.2459,0.2471,0.2481,0,0,0,0,0,0,0.1967,0.1993,0.201,0.2041,0.2078,0.2105,0.2144,0.2169,0.2224,0.2247,0.2257,0.2266,0.2337,0.2334,0.2305,0.2397,0.2358,0.2364,0.24,0.2411,0.242,0.2413,0.2281,0,0,0,0,0,0.1975,0.1999,0.2027,0.2059,0.208,0.212,0.2149,0.218,0.222,0.2248,0.2282,0.2319,0.2352,0.2377,0.2404,0.2449,0.2454,0.2482,0.2492,0.2499,0.2498,0.2552,0.2565,0.2419,0.2419,0.2419,0,0,0.1987,0.2006,0.2023,0.2063,0.2098,0.2131,0.2143,0.2201,0.2239,0.2246,0.2326,0.2357,0.2374,0.2431,0.2462,0.2438,0.2547,0.2505,0.2512,0.2506,0.2558,0.2572,0.2585,0.2422,0.2422,0.2421,0,0,0.2009,0.2042,0.2066,0.2097,0.2153,0.2174,0.22,0.2253,0.2294,0.236,0.238,0.2438,0.249,0.251,0.2523,0.2598,0.2597,0.2617,0.2655,0.2707,0.2719,0.273,0.2763,0.2776,0.2618,0.2618,0.2618,0,0.2029,0.2053,0.2083,0.2113,0.2144,0.2197,0.2231,0.2275,0.2346,0.2383,0.2401,0.2503,0.2523,0.2581,0.2612,0.2618,0.2644,0.2609,0.2718,0.2729,0.2739,0.277,0.2783,0.2622,0.2622,0.2621,0.2621,0,0.2049,0.2089,0.2111,0.2159,0.2199,0.2243,0.2294,0.2355,0.2413,0.2454,0.2549,0.2584,0.2644,0.2663,0.266,0.2743,0.2738,0.2726,0.2686,0.2757,0.2786,0.2798,0.2627,0.2626,0.2625,0.2624,0,0,0.2035,0.2109,0.2121,0.2149,0.2228,0.2254,0.2333,0.2403,0.2462,0.2544,0.2618,0.2686,0.2726,0.2743,0.276,0.2801,0.2895,0.28,0.2801,0.2825,0.3013,0.2831,0.2827,0.2913,0.2915,0.2917,0.3007,0,0.2046,0.2097,0.2138,0.2201,0.2229,0.2301,0.2364,0.2442,0.2518,0.2606,0.2668,0.275,0.275,0.2798,0.2843,0.289,0.2932,0.2871,0.2947,0.2948,0.2771,0.2836,0.2925,0.3017,0.302,0.3022,0.3023,0,0.204,0.2076,0.2135,0.2213,0.2236,0.2291,0.2398,0.2464,0.2591,0.2659,0.2755,0.2811,0.2905,0.2889,0.3003,0.2973,0.3002,0.3022,0.3026,0.2836,0.2788,0.2931,0.3046,0.3044,0.3043,0.3041,0.304,0,0.1984,0.2068,0.2114,0.2142,0.2245,0.23,0.2368,0.249,0.256,0.2707,0.2782,0.2891,0.2974,0.3031,0.3092,0.3067,0.32,0.3166,0.3023,0.3011,0.3119,0.3107,0.3237,0.3237,0.3237,0.3236,0.3236,0,0.1948,0.1989,0.21,0.2122,0.2193,0.228,0.2375,0.2464,0.2604,0.2684,0.2814,0.2886,0.302,0.3107,0.3131,0.3119,0.3242,0.3034,0.3023,0.3146,0.3135,0.3128,0.3115,0.324,0.3239,0.3238,0.3238,0,0.1871,0.1946,0.2002,0.2121,0.2167,0.222,0.2372,0.2431,0.2588,0.2698,0.2756,0.293,0.3034,0.3132,0.3237,0.3157,0.3168,0.3132,0.327,0.3265,0.2931,0.292,0.2963,0.2957,0.2952,0.2948,0.2945,0,0.183,0.1854,0.1986,0.2023,0.2086,0.2185,0.2248,0.241,0.2471,0.269,0.2722,0.2897,0.2987,0.2993,0.3106,0.3138,0.3104,0.3083,0.2979,0.2918,0.2905,0.2901,0.2897,0.2937,0.2936,0.2934,0.2933,0,0.1748,0.1817,0.1864,0.1943,0.2015,0.2076,0.2181,0.221,0.2388,0.2557,0.2629,0.2689,0.2803,0.2875,0.2935,0.2947,0.3076,0.3032,0.304,0.2942,0.2888,0.2878,0.288,0.2917,0.2919,0.292,0.2921,0,0.1696,0.1706,0.1782,0.1832,0.1916,0.1931,0.2003,0.2071,0.2157,0.239,0.2412,0.2597,0.2771,0.2778,0.2829,0.2834,0.2778,0.2671,0.2697,0.2717,0.2594,0.2486,0.2386,0,0,0,0,0,0.1626,0.1619,0.1659,0.1695,0.177,0.1816,0.1936,0.2012,0.2184,0.2173,0.2286,0.2375,0.2455,0.2558,0.2513,0.2715,0.2786,0.2649,0.2675,0.2824,0.2843,0.272,0,0,0,0,0,0,0.1576,0.1612,0.1611,0.157,0.1569,0.1629,0.1694,0.1811,0.1815,0.201,0.2072,0.2228,0.235,0.246,0.2468,0.2498,0.2463,0.2773,0.2767,0.2813,0.283,0.2846,0.2726,0,0,0,0,0]},{"header":{"parameterUnit":"m.s-1","parameterCategory":2,"la1":30.2991,"la2":30.254,"lo1":-89.0895,"lo2":-89.0444,"dy":0.0017,"dx":0.0017,"nx":28,"ny":28,"refTime":"2024-11-30T03:00:00:Z","depth":"4","parameterNumber":3,"parameterNumberName":"V-component_of_CURRENTS"},"data":[0,0,0,0,0,0,0,0,0,0,0,0,0,0,0,0,0,0,0,0,0,0,0,0,0,0,0,0,0,0,0,0,0,0,0,0,0,0,0,0,0,0,0,0,0,0,0,0,0,0,0,0,0,0,0,0,0,0,0.0156,0.0155,0,0.0119,0.0118,0.0118,0.0093,0.0093,0.0093,0.0093,0.0053,0.0052,0.0051,0,0,0,0,0,0,0,0,0,0,0,0,0,0.0159,0.0159,0.0156,0.0155,0.0155,0.0119,0.0118,0.0118,0.0093,0.0093,0.0093,0.0093,0.0053,0.0052,0.0051,0,0,0,0,0,0,0,0,0,0,0,0,0,0.0142,0.0159,0.0156,0.0139,0.0138,0.0119,0.0118,0.0118,0.0093,0.0093,0.0093,0.0093,0.0053,0.0052,0.005,0.0043,0,0,0.0046,0.0045,0,0,0,0,0,0,0,0,0.0143,0.0142,0.0142,0.014,0.0138,0.0112,0.0105,0.0093,0.0094,0.0109,0.0093,0.0093,0.0073,0.007,0.0061,0.0041,0.0039,0.0046,0.0045,0.0044,0.0044,0,0,0,0,0,0,0,0.0145,0.0143,0.014,0.0142,0.014,0.0118,0.0116,0.0102,0.0091,0.0108,0.0106,0.0104,0.0072,0.0063,0.006,0.0039,0.0046,0.0044,0.0043,0.0043,0.0013,0.0013,0,0,0,0,0,0,0.0154,0.0145,0.0141,0.0139,0.0142,0.0119,0.0116,0.0119,0.0091,0.0087,0.0104,0.0103,0.0066,0.0062,0.0059,0.0065,0.0044,0.0043,0.0042,0.0013,0.0013,0.0013,0,0,0,0,0,0,0.0154,0.0154,0.0143,0.0141,0.0139,0.0119,0.0123,0.0119,0.0114,0.0089,0.0084,0.0104,0.0065,0.0061,0.0053,0.0063,0.0042,0.0041,0.0013,0.0013,0.0013,0.0067,0,0,0,0,0,0,0.0155,0.0155,0.0161,0.0142,0.0139,0.014,0.0123,0.0118,0.0113,0.0111,0.0087,0.0083,0.0065,0.0056,0.0052,0.0061,0.0039,0.0012,0.0013,0.0013,0.0066,0.0069,0.0073,0,0,0,0,0,0.0155,0.0168,0.0161,0.0161,0.0148,0.014,0.0137,0.0121,0.0114,0.0116,0.0099,0.0084,0.0054,0.0055,0.005,0.0059,0.0012,0.0013,0.0013,0.0064,0.0069,0.0073,0,0,0,0,0,0,0.0172,0.0166,0.0158,0.0168,0.0158,0.0137,0.0138,0.0126,0.0114,0.0114,0.0088,0.0083,0.0077,0.0059,0.0061,0.0049,0.003,0.0029,0.007,0.0074,0.0078,0.0096,0.0038,0,0,0,0,0,0.0179,0.0187,0.0173,0.0181,0.0178,0.0159,0.0153,0.0144,0.013,0.0125,0.0107,0.0088,0.0073,0.0068,0.005,0.0048,0.0022,0.0049,0.0052,0.0056,0.0066,0.0034,0.0036,0.0014,0.0014,0.0014,0,0,0.0188,0.0186,0.0189,0.0185,0.0176,0.0182,0.0155,0.0154,0.016,0.0123,0.0125,0.01,0.0074,0.007,0.0066,0.0059,0.0046,0.0056,0.0059,0.0068,0.0035,0.0037,0.0039,0.0014,0.0014,0.0014,0,0,0.0211,0.0208,0.0222,0.0218,0.0211,0.0201,0.0204,0.0187,0.018,0.0176,0.015,0.0135,0.0112,0.0097,0.0087,0.01,0.0064,0.0091,0.0129,0.0098,0.01,0.0101,0.0063,0.0061,0.0096,0.0096,0.0096,0,0.0221,0.0239,0.0224,0.0236,0.0243,0.0215,0.0234,0.0221,0.0204,0.0205,0.0185,0.0153,0.0127,0.0126,0.0128,0.011,0.0083,0.0117,0.0104,0.0105,0.0105,0.0066,0.0062,0.0099,0.0098,0.0098,0.0098,0,0.0253,0.0269,0.0278,0.0289,0.0292,0.0303,0.0289,0.0285,0.0271,0.0261,0.0252,0.0211,0.0196,0.0179,0.0158,0.0152,0.0128,0.011,0.0096,0.0111,0.0068,0.0064,0.0103,0.0102,0.0101,0.01,0,0,0.0276,0.0297,0.0302,0.0323,0.0324,0.0334,0.0341,0.0346,0.0364,0.0327,0.034,0.03,0.0277,0.0263,0.0228,0.0198,0.0169,0.0161,0.0158,0.013,0.0094,0.0073,0.0065,0.0149,0.0148,0.0148,0.006,0,0.0307,0.0351,0.0351,0.0397,0.042,0.0405,0.0421,0.0421,0.0413,0.0414,0.0364,0.0363,0.031,0.0306,0.0266,0.0196,0.016,0.0194,0.0078,0.0075,0.006,0.0061,0.0147,0.0057,0.0056,0.0055,0.0054,0,0.034,0.0368,0.0419,0.0464,0.0473,0.0495,0.0526,0.0539,0.0528,0.0522,0.0501,0.046,0.0415,0.0365,0.0252,0.0275,0.0193,0.0129,0.0124,0.0086,0.0046,0.0039,0.0046,0.0046,0.0047,0.0048,0.0048,0,0.037,0.0419,0.0467,0.048,0.0518,0.0541,0.0564,0.0574,0.0607,0.0595,0.0608,0.0541,0.0514,0.0403,0.0265,0.026,0.0129,0.0106,0.0007,0.0004,0.0025,0.0025,0.0026,0.0026,0.0026,0.0026,0.0026,0,0.0403,0.0443,0.0488,0.0513,0.0584,0.0593,0.0666,0.0671,0.0698,0.0744,0.0673,0.0677,0.0523,0.0425,0.0289,0.0134,0.0145,0.0015,-0.0017,0.0048,0.0051,0.0021,0.0022,0.0023,0.0024,0.0024,0.0025,0,0.0426,0.0451,0.0514,0.0571,0.06,0.0652,0.0743,0.0795,0.0805,0.0855,0.0855,0.0782,0.0653,0.0483,0.03,0.0178,0.0025,-0.0035,0.0046,0.0019,-0.0089,-0.0084,-0.0149,-0.015,-0.0152,-0.0153,-0.0153,0,0.0439,0.0473,0.0563,0.0615,0.0646,0.0732,0.0797,0.0845,0.0902,0.0918,0.0939,0.0839,0.0761,0.0493,0.0304,0.0039,-0.0002,-0.0089,-0.009,-0.008,-0.0105,-0.0099,-0.0093,-0.0155,-0.0156,-0.0156,-0.0156,0,0.0468,0.05,0.0556,0.0663,0.0744,0.0845,0.0934,0.0983,0.1032,0.104,0.1015,0.0873,0.0723,0.0504,0.0295,0.0105,-0.0037,-0.0102,-0.0101,-0.0103,-0.0088,-0.0111,-0.0104,-0.016,-0.016,-0.0159,-0.0159,0,0.0493,0.0537,0.0613,0.0711,0.0817,0.092,0.0971,0.1033,0.1087,0.1089,0.1079,0.0912,0.0821,0.0538,0.0348,0.0154,0.01,0.003,0.0023,0.0025,0.0094,0.0139,0.0114,0,0,0,0,0,0.0516,0.0569,0.0657,0.0765,0.0871,0.0938,0.1046,0.1087,0.1127,0.1119,0.1102,0.096,0.0682,0.057,0.0374,0.0308,0.0055,0.0069,-0.0032,-0.0183,-0.0178,-0.013,0,0,0,0,0,0,0.053,0.0611,0.0655,0.0792,0.0873,0.0999,0.1073,0.1105,0.1102,0.1104,0.0969,0.0896,0.0634,0.0794,0.0366,0.0308,0.0213,-0.0058,-0.0062,-0.0186,-0.0181,-0.0178,-0.0126,0,0,0,0,0]}]]